SCP
-0 -0 0 0 0 0 0 1 1 1 1 0 0 0 0 0 0 0 0 0 0 0 0 0 0 0 0 0 0 0 0 0 0 0 0 0 0 0 0 0 0 0 0
-0 -0 0 0 0 0 0 0 0 1 1 1 1 1 1 0 0 0 0 0 0 0 0 0 0 0 0 0 0 0 0 0 0 0 0 0 0 0 0 0 0 0 0
-0 0 0 0 0 0 0 0 0 0 1 1 1 0 1 0 0 1 1 0 0 0 0 0 0 0 0 0 0 0 0 0 0 0 0 0 0 0 0 0 0 0 0
0 0 0 0 0 0 0 0 0 0 0 0 0 0 0 0 0 0 0 0 0 0 0 0 0 0 0 0 0 0 0 0 0 0 0 0 0 0 0 0 0 0 0
0 0 0 0 0 0 0 0 0 0 0 0 0 0 0 0 0 0 0 0 0 0 0 0 0 0 0 0 0 0 0 0 0 0 0 0 0 0 0 0 0 0 0
0 0 0 0 0 0 0 0 0 0 0 0 0 0 0 0 0 0 0 0 0 0 0 0 0 0 0 0 0 0 0 0 0 0 0 0 0 0 0 0 0 0 0
0 0 0 0 0 0 0 0 0 0 0 0 0 0 0 0 0 0 0 0 0 1 1 0 0 0 0 1 0 0 0 0 0 0 0 0 0 0 0 0 0 0 0
0 0 0 0 0 0 0 0 0 0 0 0 0 0 0 0 0 0 0 0 0 1 1 1 1 0 1 1 0 0 0 0 0 0 0 0 0 0 0 0 0 0 0
0 0 0 0 0 0 0 0 0 0 0 0 0 0 0 0 0 0 0 0 1 1 1 1 1 1 1 1 0 0 0 0 0 0 0 0 0 0 0 0 0 0 0
0 0 0 0 0 0 0 0 0 0 0 0 0 0 0 0 -0 -0 0 0 0 1 1 1 1 1 1 1 1 0 0 0 0 0 0 0 0 0 0 0 0 0 0
0 0 0 0 0 0 0 0 0 0 0 0 0 0 0 0 0 0 0 0 1 1 1 1 1 1 1 1 1 1 0 0 0 0 0 0 0 0 0 0 0 0 0
0 0 0 0 -0 0 0 0 0 0 0 0 0 0 0 0 0 0 0 0 0 0 1 1 1 1 1 1 0 1 1 0 0 0 0 0 0 0 0 0 0 0 0
0 0 0 0 0 0 0 0 0 0 0 0 0 0 0 0 0 0 0 0 0 0 0 1 1 1 1 1 1 0 0 0 0 0 0 0 0 0 0 0 0 0 0
0 0 0 0 0 0 0 0 0 0 0 0 0 0 0 0 0 0 0 0 0 0 0 0 1 1 1 1 1 1 0 0 0 0 0 0 0 0 0 0 0 0 0
0 0 0 0 0 0 0 0 0 0 0 0 0 0 0 0 0 0 0 0 0 0 0 0 0 1 1 1 1 0 0 0 0 0 0 0 0 0 0 0 0 0 0
0 0 0 0 0 0 0 0 0 0 0 0 0 0 0 0 0 0 0 0 0 0 0 0 0 1 1 0 0 0 0 0 0 0 0 0 0 0 0 0 0 0 0
0 0 0 0 0 0 0 0 0 0 0 0 0 0 0 0 0 0 0 0 0 0 0 0 0 0 0 0 0 0 0 0 0 0 0 0 0 0 0 0 0 0 0
0 0 0 0 0 0 0 0 0 0 0 0 0 0 0 0 0 0 0 0 0 0 0 0 0 0 0 0 0 0 0 0 0 0 0 0 0 0 0 0 0 0 0
0 0 0 0 0 0 0 0 0 0 0 0 0 0 0 0 0 0 0 0 0 0 0 0 0 0 0 0 0 0 0 0 0 0 0 0 0 0 0 0 0 0 0
-0 0 0 0 0 0 0 0 0 0 0 0 0 0 0 0 0 0 0 0 0 0 0 0 0 0 0 0 0 0 0 0 0 0 0 0 0 0 0 0 0 0 0
0 0 0 0 0 0 0 0 0 0 0 0 0 -0 -0 0 0 0 0 0 0 0 0 0 0 0 0 0 0 0 0 0 0 0 0 0 0 0 0 0 0 0 0
0 0 0 0 0 0 0 0 0 0 0 0 0 0 -0 0 0 0 0 0 0 0 0 0 0 -0 -0 -0 0 0 0 0 0 0 0 0 0 0 0 0 0 0 0
0 0 0 0 0 0 0 0 0 0 0 0 0 0 0 0 0 0 0 -0 -0 0 0 0 0 0 0 -0 0 0 0 0 0 0 0 0 0 0 0 0 0 0 0
0 0 0 0 0 0 0 0 0 0 0 0 0 0 0 0 0 0 0 -0 -0 0 0 0 0 0 0 -0 0 0 0 0 0 0 0 0 0 0 0 0 0 0 0
0 0 0 0 0 0 0 0 0 0 -0 -0 -0 -0 -0 -0 0 0 -0 -0 -0 0 0 0 0 0 0 0 0 0 0 0 0 0 0 0 0 0 0 0 0 0 0
0 0 0 0 0 0 0 0 0 -0 -0 -0 -0 0 0 0 0 0 -0 -0 -0 0 0 0 0 0 0 0 0 0 0 0 0 0 0 0 0 0 0 0 0 0 0
Wind_Speed_500mb
39 46 47 43 43 47 42 38 35 27 26 25 26 25 20 21 20 25 27 28 32 38 49 52 41 45 53 52 47 42 37 38 41 38 35 35 37 35 28 22 17 15 12
41 37 39 41 41 49 48 41 40 34 33 31 26 29 32 34 35 31 28 32 34 39 41 48 44 39 44 53 51 47 41 45 45 46 42 28 38 40 36 35 29 23 21
23 13 22 26 26 33 36 38 35 36 36 34 31 32 36 44 44 40 41 41 39 36 35 41 47 48 46 51 56 52 48 51 54 55 37 16 21 31 39 42 38 32 30
8 8 14 20 19 20 22 23 26 26 23 27 34 41 43 44 46 51 56 56 51 45 38 38 47 54 60 55 58 60 55 56 60 60 55 49 31 18 16 35 44 42 37
17 17 19 21 21 20 22 25 27 29 30 29 29 32 35 39 39 45 55 63 62 52 41 42 44 51 59 62 60 66 66 62 67 69 64 60 53 41 35 25 34 46 42
23 21 14 10 9 13 15 17 19 20 20 21 26 31 33 34 39 43 51 54 58 58 49 54 49 50 55 58 70 58 61 62 64 70 69 63 59 56 45 39 32 38 41
12 13 11 9 4 3 5 8 12 17 18 18 23 28 31 34 36 38 42 45 51 56 60 57 55 50 54 57 64 67 63 61 61 70 70 60 57 53 48 45 37 33 37
5 2 4 10 18 19 18 19 23 28 28 25 28 31 34 35 37 39 40 42 48 49 50 54 55 51 56 58 57 63 75 83 60 63 70 59 55 55 53 49 46 34 38
25 19 15 34 38 35 32 31 31 29 26 24 28 34 40 46 49 49 53 53 48 50 50 56 59 54 52 55 56 65 66 75 76 64 69 66 57 56 53 50 45 49 41
33 38 51 57 44 50 52 44 37 28 26 32 40 47 54 57 55 55 52 54 57 54 50 56 59 61 60 57 61 70 74 84 79 74 74 66 61 57 54 49 43 41 41
44 62 57 50 51 49 63 49 35 27 30 37 44 51 53 53 61 62 51 49 49 51 56 57 66 70 68 62 69 73 86 93 91 85 75 71 65 61 57 51 47 43 43
52 58 49 36 46 46 50 42 31 29 33 39 44 38 48 59 62 54 51 51 55 55 58 60 67 72 74 69 68 74 81 95 96 87 77 71 69 66 59 53 52 44 45
65 63 46 38 41 28 32 32 32 32 34 38 41 51 58 59 55 56 56 60 61 58 58 63 67 67 76 75 74 73 88 95 93 85 80 79 75 68 61 55 53 44 42
70 37 27 24 23 27 33 37 38 36 38 42 53 58 61 56 53 53 60 67 65 65 62 64 70 69 77 77 73 73 90 94 96 91 84 79 71 70 63 57 53 43 42
16 10 14 20 26 33 38 41 43 45 47 54 60 64 64 61 58 62 66 67 72 68 62 59 63 67 76 73 72 72 99 91 105 89 85 72 62 63 58 54 51 44 45
8 22 24 28 35 40 49 55 60 67 73 78 77 73 70 67 65 69 77 72 68 72 64 61 60 69 73 73 75 79 104 97 85 88 77 67 58 61 53 50 41 43 49
38 45 55 59 60 62 61 61 70 79 85 84 83 78 72 70 68 75 83 75 67 68 61 62 59 62 72 63 73 85 102 95 95 95 80 68 61 61 57 51 41 39 33
42 54 69 79 78 79 82 81 81 85 86 84 80 72 64 71 76 84 80 74 67 66 58 63 61 63 72 67 88 88 88 89 101 85 87 68 68 68 67 57 52 46 40
75 80 77 80 77 77 75 76 77 75 74 75 68 59 65 79 90 90 80 70 65 63 60 59 64 64 73 71 94 98 87 74 81 86 78 63 73 75 68 63 58 53 47
74 72 83 83 81 81 75 73 75 69 66 62 68 76 82 93 89 79 70 66 63 63 59 56 58 57 67 76 94 107 99 88 89 80 69 68 75 73 70 63 61 57 58
92 88 87 83 79 69 65 73 73 73 76 84 92 99 97 91 79 72 61 63 63 60 57 50 56 61 25 71 111 91 109 96 100 77 80 77 72 71 67 62 55 56 61
83 77 80 80 72 74 71 83 93 98 99 93 86 86 85 75 71 62 58 63 62 60 56 47 50 38 29 50 110 96 120 103 94 79 86 81 75 68 65 59 53 55 55
80 80 80 86 83 83 81 93 105 92 82 80 80 75 70 67 63 56 60 65 63 57 55 60 54 39 24 31 85 96 107 98 83 90 85 79 74 66 63 57 55 58 59
74 75 80 82 85 79 75 77 73 70 76 80 77 71 65 67 59 57 62 67 63 55 57 60 59 46 35 33 55 99 98 103 97 92 80 76 74 67 63 59 61 62 62
82 78 78 82 87 81 82 79 73 66 69 71 69 66 63 61 56 57 64 62 56 55 65 68 66 54 54 51 47 69 106 97 86 86 81 83 79 76 73 71 72 69 67
78 80 83 82 84 79 74 69 63 58 58 68 67 65 60 52 51 51 57 56 58 47 60 64 60 61 56 41 51 72 92 82 88 93 94 92 87 86 87 85 80 75 68
Wind_Direction_500mb
259 254 239 238 232 226 227 237 233 239 237 235 232 244 264 270 285 297 304 298 283 285 279 254 251 248 242 235 238 242 248 248 234 220 218 219 223 228 231 236 239 245 263
286 271 238 228 229 235 238 241 239 234 242 240 260 270 279 277 268 277 287 297 292 286 283 273 252 255 246 233 236 239 238 235 229 212 219 216 228 231 243 240 236 236 249
307 199 191 211 232 235 237 243 236 239 248 250 248 261 269 277 277 283 288 292 300 296 291 287 271 256 247 239 234 238 234 234 222 225 214 202 218 224 238 239 237 234 243
56 156 181 193 191 194 196 198 212 229 234 240 250 254 260 275 284 281 281 283 282 284 289 292 281 266 248 244 241 239 237 235 231 227 233 235 246 214 221 239 236 235 239
76 109 130 147 166 183 189 194 201 210 218 233 241 249 255 264 272 277 275 277 276 278 277 283 285 271 265 250 240 240 238 237 237 233 233 234 242 243 239 248 239 233 232
72 77 89 113 156 167 178 191 200 208 221 238 254 261 265 271 276 282 283 285 273 273 266 274 287 273 263 262 248 241 236 241 242 237 238 243 244 246 242 243 241 233 227
78 73 69 74 52 283 258 246 250 261 261 253 259 262 266 269 272 273 275 278 278 272 267 270 278 276 261 259 260 245 230 232 242 242 241 245 250 256 259 251 243 219 221
311 305 276 315 314 293 275 272 271 259 259 270 277 278 280 284 283 282 279 274 275 279 274 265 267 272 264 256 252 251 252 230 236 240 241 245 250 254 255 252 246 225 215
321 286 335 327 293 283 266 259 248 248 256 265 280 290 291 293 293 289 282 278 276 279 276 265 261 264 263 256 253 247 228 220 226 242 242 247 248 251 251 250 247 244 225
333 322 299 304 295 272 265 245 245 256 272 291 296 298 300 301 301 294 282 272 273 274 276 272 265 262 264 260 254 243 233 226 222 232 240 241 245 244 245 243 241 240 246
319 320 307 299 294 272 257 244 246 262 286 294 298 300 298 296 297 297 278 272 269 269 270 267 268 262 263 261 259 248 234 232 232 227 231 239 240 240 238 236 237 236 238
308 310 300 296 294 276 242 235 252 274 288 294 297 295 305 302 299 294 275 267 268 270 270 270 266 263 261 262 257 246 240 235 231 224 224 234 235 236 233 235 237 235 242
305 301 281 281 286 255 229 245 261 274 290 295 297 299 303 298 300 292 283 272 273 274 271 270 269 264 260 261 261 246 239 238 225 222 219 224 230 231 227 227 228 234 240
292 280 275 270 248 243 254 264 273 284 292 303 300 296 296 295 299 303 296 279 273 279 276 272 269 262 260 261 255 246 235 237 226 225 219 220 228 228 224 224 228 232 233
285 306 304 289 285 281 280 277 280 283 287 292 295 288 292 290 295 298 306 291 274 274 280 281 271 258 253 262 248 243 235 239 223 222 216 218 228 229 228 224 226 231 223
348 339 322 316 309 301 298 295 291 288 288 289 290 287 281 285 290 297 304 302 278 270 274 281 281 260 254 259 242 241 230 232 211 206 207 212 226 221 220 220 230 240 218
288 310 311 308 306 301 299 287 283 282 282 285 283 283 272 276 285 296 304 297 286 271 269 274 279 258 252 253 239 234 225 226 217 210 203 204 218 214 204 211 214 213 211
302 299 301 298 295 294 294 294 292 288 284 281 280 276 267 278 287 297 299 292 284 272 264 270 273 267 249 248 238 235 224 214 205 198 196 205 215 202 203 202 201 197 194
297 299 297 294 292 292 292 292 290 286 280 274 274 270 276 285 292 293 293 285 278 266 259 264 271 260 246 242 229 221 204 203 194 194 195 216 206 200 202 204 198 192 188
297 295 297 294 290 292 290 288 287 281 272 272 277 278 282 290 290 286 286 278 270 259 263 262 262 255 252 242 230 214 204 205 197 194 207 208 202 202 202 203 198 196 194
301 303 298 291 291 292 289 286 285 277 278 281 287 287 287 285 281 279 278 270 264 254 264 255 245 242 267 235 207 213 204 203 193 200 201 197 200 202 202 200 202 206 196
298 301 300 289 289 281 278 281 282 286 287 287 283 280 278 277 276 273 270 262 256 252 259 245 219 234 259 286 222 222 205 205 195 202 195 193 193 197 195 192 194 197 196
290 289 286 286 279 275 272 275 280 284 283 281 281 279 276 273 272 266 259 259 250 249 253 231 226 210 216 252 215 214 194 191 199 198 192 187 184 188 188 188 190 193 190
292 292 290 286 283 283 283 282 284 283 279 280 280 278 276 275 271 260 252 254 243 240 241 225 217 215 218 241 229 195 192 194 203 193 177 179 179 183 182 182 189 188 185
299 295 288 286 285 286 285 284 281 271 272 275 276 271 270 269 267 254 246 242 238 243 228 220 214 207 216 231 220 212 194 203 191 172 171 177 178 178 179 181 183 181 180
297 296 296 294 294 293 290 287 283 280 272 271 270 267 264 262 258 249 244 232 238 236 236 229 221 220 230 248 221 215 206 184 172 167 175 179 180 180 179 180 179 180 178
Wind_Speed_850mb
39 46 47 43 43 47 42 38 35 27 26 25 26 25 20 21 20 25 27 28 32 38 49 52 41 45 53 52 47 42 37 38 41 38 35 35 37 35 28 22 17 15 12
41 37 39 41 41 49 48 41 40 34 33 31 26 29 32 34 35 31 28 32 34 39 41 48 44 39 44 53 51 47 41 45 45 46 42 28 38 40 36 35 29 23 21
23 13 22 26 26 33 36 38 35 36 36 34 31 32 36 44 44 40 41 41 39 36 35 41 47 48 46 51 56 52 48 51 54 55 37 16 21 31 39 42 38 32 30
8 8 14 20 19 20 22 23 26 26 23 27 34 41 43 44 46 51 56 56 51 45 38 38 47 54 60 55 58 60 55 56 60 60 55 49 31 18 16 35 44 42 37
17 17 19 21 21 20 22 25 27 29 30 29 29 32 35 39 39 45 55 63 62 52 41 42 44 51 59 62 60 66 66 62 67 69 64 60 53 41 35 25 34 46 42
23 21 14 10 9 13 15 17 19 20 20 21 26 31 33 34 39 43 51 54 58 58 49 54 49 50 55 58 70 58 61 62 64 70 69 63 59 56 45 39 32 38 41
12 13 11 9 4 3 5 8 12 17 18 18 23 28 31 34 36 38 42 45 51 56 60 57 55 50 54 57 64 67 63 61 61 70 70 60 57 53 48 45 37 33 37
5 2 4 10 18 19 18 19 23 28 28 25 28 31 34 35 37 39 40 42 48 49 50 54 55 51 56 58 57 63 75 83 60 63 70 59 55 55 53 49 46 34 38
25 19 15 34 38 35 32 31 31 29 26 24 28 34 40 46 49 49 53 53 48 50 50 56 59 54 52 55 56 65 66 75 76 64 69 66 57 56 53 50 45 49 41
33 38 51 57 44 50 52 44 37 28 26 32 40 47 54 57 55 55 52 54 57 54 50 56 59 61 60 57 61 70 74 84 79 74 74 66 61 57 54 49 43 41 41
44 62 57 50 51 49 63 49 35 27 30 37 44 51 53 53 61 62 51 49 49 51 56 57 66 70 68 62 69 73 86 93 91 85 75 71 65 61 57 51 47 43 43
52 58 49 36 46 46 50 42 31 29 33 39 44 38 48 59 62 54 51 51 55 55 58 60 67 72 74 69 68 74 81 95 96 87 77 71 69 66 59 53 52 44 45
65 63 46 38 41 28 32 32 32 32 34 38 41 51 58 59 55 56 56 60 61 58 58 63 67 67 76 75 74 73 88 95 93 85 80 79 75 68 61 55 53 44 42
70 37 27 24 23 27 33 37 38 36 38 42 53 58 61 56 53 53 60 67 65 65 62 64 70 69 77 77 73 73 90 94 96 91 84 79 71 70 63 57 53 43 42
16 10 14 20 26 33 38 41 43 45 47 54 60 64 64 61 58 62 66 67 72 68 62 59 63 67 76 73 72 72 99 91 105 89 85 72 62 63 58 54 51 44 45
8 22 24 28 35 40 49 55 60 67 73 78 77 73 70 67 65 69 77 72 68 72 64 61 60 69 73 73 75 79 104 97 85 88 77 67 58 61 53 50 41 43 49
38 45 55 59 60 62 61 61 70 79 85 84 83 78 72 70 68 75 83 75 67 68 61 62 59 62 72 63 73 85 102 95 95 95 80 68 61 61 57 51 41 39 33
42 54 69 79 78 79 82 81 81 85 86 84 80 72 64 71 76 84 80 74 67 66 58 63 61 63 72 67 88 88 88 89 101 85 87 68 68 68 67 57 52 46 40
75 80 77 80 77 77 75 76 77 75 74 75 68 59 65 79 90 90 80 70 65 63 60 59 64 64 73 71 94 98 87 74 81 86 78 63 73 75 68 63 58 53 47
74 72 83 83 81 81 75 73 75 69 66 62 68 76 82 93 89 79 70 66 63 63 59 56 58 57 67 76 94 107 99 88 89 80 69 68 75 73 70 63 61 57 58
92 88 87 83 79 69 65 73 73 73 76 84 92 99 97 91 79 72 61 63 63 60 57 50 56 61 25 71 111 91 109 96 100 77 80 77 72 71 67 62 55 56 61
83 77 80 80 72 74 71 83 93 98 99 93 86 86 85 75 71 62 58 63 62 60 56 47 50 38 29 50 110 96 120 103 94 79 86 81 75 68 65 59 53 55 55
80 80 80 86 83 83 81 93 105 92 82 80 80 75 70 67 63 56 60 65 63 57 55 60 54 39 24 31 85 96 107 98 83 90 85 79 74 66 63 57 55 58 59
74 75 80 82 85 79 75 77 73 70 76 80 77 71 65 67 59 57 62 67 63 55 57 60 59 46 35 33 55 99 98 103 97 92 80 76 74 67 63 59 61 62 62
82 78 78 82 87 81 82 79 73 66 69 71 69 66 63 61 56 57 64 62 56 55 65 68 66 54 54 51 47 69 106 97 86 86 81 83 79 76 73 71 72 69 67
78 80 83 82 84 79 74 69 63 58 58 68 67 65 60 52 51 51 57 56 58 47 60 64 60 61 56 41 51 72 92 82 88 93 94 92 87 86 87 85 80 75 68
Wind_Direction_850mb
259 254 239 238 232 226 227 237 233 239 237 235 232 244 264 270 285 297 304 298 283 285 279 254 251 248 242 235 238 242 248 248 234 220 218 219 223 228 231 236 239 245 263
286 271 238 228 229 235 238 241 239 234 242 240 260 270 279 277 268 277 287 297 292 286 283 273 252 255 246 233 236 239 238 235 229 212 219 216 228 231 243 240 236 236 249
307 199 191 211 232 235 237 243 236 239 248 250 248 261 269 277 277 283 288 292 300 296 291 287 271 256 247 239 234 238 234 234 222 225 214 202 218 224 238 239 237 234 243
56 156 181 193 191 194 196 198 212 229 234 240 250 254 260 275 284 281 281 283 282 284 289 292 281 266 248 244 241 239 237 235 231 227 233 235 246 214 221 239 236 235 239
76 109 130 147 166 183 189 194 201 210 218 233 241 249 255 264 272 277 275 277 276 278 277 283 285 271 265 250 240 240 238 237 237 233 233 234 242 243 239 248 239 233 232
72 77 89 113 156 167 178 191 200 208 221 238 254 261 265 271 276 282 283 285 273 273 266 274 287 273 263 262 248 241 236 241 242 237 238 243 244 246 242 243 241 233 227
78 73 69 74 52 283 258 246 250 261 261 253 259 262 266 269 272 273 275 278 278 272 267 270 278 276 261 259 260 245 230 232 242 242 241 245 250 256 259 251 243 219 221
311 305 276 315 314 293 275 272 271 259 259 270 277 278 280 284 283 282 279 274 275 279 274 265 267 272 264 256 252 251 252 230 236 240 241 245 250 254 255 252 246 225 215
321 286 335 327 293 283 266 259 248 248 256 265 280 290 291 293 293 289 282 278 276 279 276 265 261 264 263 256 253 247 228 220 226 242 242 247 248 251 251 250 247 244 225
333 322 299 304 295 272 265 245 245 256 272 291 296 298 300 301 301 294 282 272 273 274 276 272 265 262 264 260 254 243 233 226 222 232 240 241 245 244 245 243 241 240 246
319 320 307 299 294 272 257 244 246 262 286 294 298 300 298 296 297 297 278 272 269 269 270 267 268 262 263 261 259 248 234 232 232 227 231 239 240 240 238 236 237 236 238
308 310 300 296 294 276 242 235 252 274 288 294 297 295 305 302 299 294 275 267 268 270 270 270 266 263 261 262 257 246 240 235 231 224 224 234 235 236 233 235 237 235 242
305 301 281 281 286 255 229 245 261 274 290 295 297 299 303 298 300 292 283 272 273 274 271 270 269 264 260 261 261 246 239 238 225 222 219 224 230 231 227 227 228 234 240
292 280 275 270 248 243 254 264 273 284 292 303 300 296 296 295 299 303 296 279 273 279 276 272 269 262 260 261 255 246 235 237 226 225 219 220 228 228 224 224 228 232 233
285 306 304 289 285 281 280 277 280 283 287 292 295 288 292 290 295 298 306 291 274 274 280 281 271 258 253 262 248 243 235 239 223 222 216 218 228 229 228 224 226 231 223
348 339 322 316 309 301 298 295 291 288 288 289 290 287 281 285 290 297 304 302 278 270 274 281 281 260 254 259 242 241 230 232 211 206 207 212 226 221 220 220 230 240 218
288 310 311 308 306 301 299 287 283 282 282 285 283 283 272 276 285 296 304 297 286 271 269 274 279 258 252 253 239 234 225 226 217 210 203 204 218 214 204 211 214 213 211
302 299 301 298 295 294 294 294 292 288 284 281 280 276 267 278 287 297 299 292 284 272 264 270 273 267 249 248 238 235 224 214 205 198 196 205 215 202 203 202 201 197 194
297 299 297 294 292 292 292 292 290 286 280 274 274 270 276 285 292 293 293 285 278 266 259 264 271 260 246 242 229 221 204 203 194 194 195 216 206 200 202 204 198 192 188
297 295 297 294 290 292 290 288 287 281 272 272 277 278 282 290 290 286 286 278 270 259 263 262 262 255 252 242 230 214 204 205 197 194 207 208 202 202 202 203 198 196 194
301 303 298 291 291 292 289 286 285 277 278 281 287 287 287 285 281 279 278 270 264 254 264 255 245 242 267 235 207 213 204 203 193 200 201 197 200 202 202 200 202 206 196
298 301 300 289 289 281 278 281 282 286 287 287 283 280 278 277 276 273 270 262 256 252 259 245 219 234 259 286 222 222 205 205 195 202 195 193 193 197 195 192 194 197 196
290 289 286 286 279 275 272 275 280 284 283 281 281 279 276 273 272 266 259 259 250 249 253 231 226 210 216 252 215 214 194 191 199 198 192 187 184 188 188 188 190 193 190
292 292 290 286 283 283 283 282 284 283 279 280 280 278 276 275 271 260 252 254 243 240 241 225 217 215 218 241 229 195 192 194 203 193 177 179 179 183 182 182 189 188 185
299 295 288 286 285 286 285 284 281 271 272 275 276 271 270 269 267 254 246 242 238 243 228 220 214 207 216 231 220 212 194 203 191 172 171 177 178 178 179 181 183 181 180
297 296 296 294 294 293 290 287 283 280 272 271 270 267 264 262 258 249 244 232 238 236 236 229 221 220 230 248 221 215 206 184 172 167 175 179 180 180 179 180 179 180 178